Volver al catálogo

SL-8 R/B

ActivoPO
NORAD 14059·ROCKET BODY·🇷🇺 Russia

Lanzado May 6, 1983 desde Plesetsk Cosmodrome

Loading…

Próximos Pases (próximas 24 horas)

TLE

ActualizadoSource: Space-Track

Época: Sep 14, 2026, 18:23 UTC

1 14059U 83042B   26257.76643337  .00000038  00000-0  21154-4 0  9995
2 14059  82.9677  74.7779 0043296 138.7256 221.7190 13.79156151180793

Sigue SL-8 R/B en tiempo real con AllMySat

Download on the App Store